Volk, WI

10:23 PM CDT on March 24, 2017 (GMT -0500)
Volk

Weather History for KVOK - February, 2014

Change the Weather History Date:

Thursday, February 13, 2014

  Actual Average Record
Temperature  
Mean Temperature 16 °F -  
Max Temperature 28 °F 30 °F 51 °F (2011)
Min Temperature 4 °F 18 °F -11 °F (2016)
Degree Days  
Heating Degree Days 49    
Moisture  
Dew Point 13 °F    
Average Humidity 83    
Maximum Humidity 93    
Minimum Humidity 69    
Precipitation  
Precipitation 0.01 in - - ()
Snow  
Snow 0.00 in - - ()
Snow Depth 15.00 in    
Sea Level Pressure  
Sea Level Pressure 29.67 in    
Wind  
Wind Speed 9 mph (South)    
Max Wind Speed 23 mph    
Max Gust Speed 31 mph    
Visibility 8 miles    
Events Snow    
Averages and records for this station are not official NWS values.
T = Trace of Precipitation, MM = Missing Value Source: NWS Daily Summary

Daily Weather History Graph

Daily Weather History Graph

Search for Another Location

Airport or City:

Trip Planner

Search our weather history database for the weather conditions in past years. The results will help you decide how hot, cold, wet, or windy it might be!

Date:

Astronomy

Feb. 13, 2014 Rise Set
Actual Time 7:02 AM CST 5:28 PM CST
Civil Twilight 6:33 AM CST 5:57 PM CST
Nautical Twilight 5:59 AM CST 6:31 PM CST
Astronomical Twilight 5:26 AM CST 7:05 PM CST
Moon 4:36 PM CST (2/13) 5:56 AM CST (2/13)
Length of Visible Light 11h 24m
Length of Day
10h 25m
Waxing Gibbous, 99% of the Moon is Illuminated
Feb 13
Waxing Gibbous
Feb 14
Full
Feb 22
Last Quarter
Mar 1
New
Mar 8
First Quarter

Hourly Weather History & Observations

Time (CST) Temp. Windchill Dew Point Humidity Pressure Visibility Wind Dir Wind Speed Gust Speed Precip Events Conditions
12:58 AM 4.8 °F -2.3 °F 2.1 °F 89% 29.96 in 10.0 mi ESE 3.5 mph - -   Partly Cloudy
1:38 AM 6.8 °F -3.5 °F 5.0 °F 92% 29.87 in 10.0 mi East 5.8 mph - N/A   Mostly Cloudy
1:58 AM 8.6 °F 0.1 °F 6.4 °F 91% 29.93 in 10.0 mi East 4.6 mph - -   Overcast
2:18 AM 10.4 °F - 8.6 °F 92% 29.86 in 10.0 mi ENE 1.2 mph - N/A   Overcast
2:58 AM 10.0 °F - 7.9 °F 91% 29.90 in 10.0 mi Calm Calm - -   Overcast
3:08 AM 10.4 °F - 8.6 °F 92% 29.84 in 10.0 mi Calm Calm - N/A   Overcast
3:58 AM 10.8 °F - 8.6 °F 91% 29.88 in 10.0 mi Calm Calm - -   Overcast
4:53 AM 14.0 °F 1.2 °F 10.4 °F 86% 29.76 in 10.0 mi SE 10.4 mph - N/A   Overcast
4:58 AM 13.3 °F 2.0 °F 10.0 °F 87% 29.82 in 10.0 mi SE 8.1 mph - -   Overcast
5:13 AM 14.0 °F 2.9 °F 10.4 °F 86% 29.75 in 10.0 mi SE 8.1 mph - N/A   Overcast
5:58 AM 15.4 °F 6.8 °F 10.8 °F 82% 29.78 in 10.0 mi SE 5.8 mph - -   Overcast
6:11 AM 15.8 °F 8.6 °F 10.4 °F 79% 29.72 in 10.0 mi SE 4.6 mph - N/A Snow Light Snow
6:16 AM 15.8 °F 8.6 °F 10.4 °F 79% 29.72 in 8.0 mi Variable 4.6 mph - N/A Snow Light Snow
6:36 AM 15.8 °F 4.2 °F 12.2 °F 86% 29.68 in 4.0 mi SE 9.2 mph - N/A Snow Light Snow
6:46 AM 15.8 °F 2.7 °F 12.2 °F 86% 29.67 in 2.5 mi SE 11.5 mph - N/A Snow Light Snow
6:51 AM 15.8 °F 0.9 °F 14.0 °F 93% 29.65 in 2.0 mi SE 15.0 mph - N/A Snow Light Snow
6:56 AM 15.8 °F 1.4 °F 14.0 °F 93% 29.64 in 1.5 mi SE 13.8 mph - N/A Snow Light Snow
6:58 AM 16.7 °F 2.0 °F 13.3 °F 86% 29.71 in 1.2 mi SE 15.0 mph - - Snow Light Snow
7:02 AM 15.8 °F 2.7 °F 14.0 °F 93% 29.66 in 1.0 mi SSE 11.5 mph - N/A Snow Light Snow
7:12 AM 17.6 °F 4.3 °F 14.0 °F 86% 29.65 in 1.0 mi SSE 12.7 mph - N/A Snow Light Snow
7:17 AM 17.6 °F 5.0 °F 14.0 °F 86% 29.66 in 1.5 mi SSE 11.5 mph - N/A Snow Light Snow
7:22 AM 17.6 °F 5.0 °F 14.0 °F 86% 29.65 in 2.5 mi SSE 11.5 mph - N/A Snow Light Snow
7:27 AM 17.6 °F 6.4 °F 14.0 °F 86% 29.65 in 6.0 mi SSE 9.2 mph - N/A Snow Light Snow
7:36 AM 17.6 °F 8.2 °F 14.0 °F 86% 29.66 in 10.0 mi SSE 6.9 mph - N/A   Mostly Cloudy
7:58 AM 19.4 °F 6.6 °F 14.0 °F 80% 29.71 in 10.0 mi SSE 12.7 mph 17.3 mph N/A   Overcast
8:08 AM 19.4 °F 6.6 °F 14.0 °F 80% 29.63 in 5.0 mi SSE 12.7 mph - N/A Snow Light Snow
8:58 AM 19.4 °F 7.2 °F 15.8 °F 86% 29.67 in 7.0 mi SSE 11.5 mph - N/A   Overcast
10:04 AM 23.0 °F 11.1 °F 17.6 °F 80% 29.58 in 10.0 mi South 12.7 mph 19.6 mph N/A   Overcast
11:04 AM 23.0 °F 13.9 °F 17.6 °F 80% 29.55 in 8.0 mi SSW 8.1 mph - N/A   Overcast
11:58 AM 24.8 °F 15.3 °F 19.4 °F 80% 29.56 in 10.0 mi SSW 9.2 mph 19.6 mph N/A   Overcast
12:58 PM 26.6 °F 16.8 °F 21.2 °F 80% 29.52 in 10.0 mi SSW 10.4 mph - N/A   Overcast
1:58 PM 26.6 °F 17.5 °F 21.2 °F 80% 29.48 in 10.0 mi South 9.2 mph - N/A   Overcast
2:58 PM 28.4 °F 22.2 °F 23.0 °F 80% 29.47 in 10.0 mi South 5.8 mph - N/A   Overcast
3:58 PM 28.4 °F 14.4 °F 19.4 °F 69% 29.50 in 10.0 mi West 23.0 mph 31.1 mph N/A Snow Low Drifting Snow
4:58 PM 23.0 °F 8.0 °F 15.8 °F 74% 29.55 in 7.0 mi West 20.7 mph 29.9 mph N/A Snow Low Drifting Snow
5:58 PM 21.2 °F 7.8 °F 14.0 °F 74% 29.59 in 10.0 mi West 15.0 mph - N/A Snow Light Snow
6:01 PM 21.2 °F 8.3 °F 14.0 °F 74% 29.53 in 10.0 mi West 13.8 mph - N/A   Overcast
6:31 PM 19.4 °F 5.5 °F 14.0 °F 80% 29.54 in 10.0 mi West 15.0 mph - N/A   Overcast
6:58 PM 19.4 °F 4.5 °F 14.0 °F 80% 29.60 in 10.0 mi West 17.3 mph 26.5 mph N/A   Overcast
7:58 PM 17.6 °F 1.7 °F 12.2 °F 79% 29.61 in 10.0 mi West 18.4 mph 23.0 mph N/A   Mostly Cloudy
8:42 PM 17.6 °F 2.2 °F 12.2 °F 79% 29.56 in 10.0 mi West 17.3 mph 21.9 mph N/A Snow Light Snow
8:58 PM 17.6 °F 1.7 °F 12.2 °F 79% 29.62 in 10.0 mi West 18.4 mph - N/A Snow Light Snow
9:58 PM 17.6 °F 2.2 °F 12.2 °F 79% 29.63 in 9.0 mi West 17.3 mph 24.2 mph N/A Snow Light Snow
10:58 PM 15.8 °F 0.3 °F 10.4 °F 79% 29.65 in 10.0 mi WSW 16.1 mph 21.9 mph N/A Snow Light Snow
11:08 PM 15.8 °F 0.3 °F 10.4 °F 79% 29.60 in 10.0 mi West 16.1 mph 24.2 mph N/A Snow Light Snow
11:23 PM 14.0 °F -2.5 °F 8.6 °F 79% 29.60 in 10.0 mi WSW 17.3 mph 23.0 mph N/A Snow Light Snow
11:33 PM 14.0 °F -2.0 °F 8.6 °F 79% 29.61 in 10.0 mi WSW 16.1 mph 21.9 mph N/A Snow Light Snow
11:43 PM 14.0 °F -3.4 °F 8.6 °F 79% 29.61 in 10.0 mi West 19.6 mph 24.2 mph N/A Snow Light Snow
11:58 PM 14.2 °F -2.3 °F 8.2 °F 77% 29.68 in 10.0 mi West 17.3 mph 24.2 mph - Snow Light Snow
11:59 PM 14.0 °F -2.0 °F 8.6 °F 79% 29.63 in 10.0 mi West 16.1 mph 24.2 mph N/A   Mostly Cloudy